Regional Weather Roundup
Issued by NWS

Home | Current Version | Previous Version | Graphics & Text | Print | Product List | Glossary On
Versions: 1 2 3 4 5 6 7 8 9 10 11 12 13 14 15 16 17 18 19 20 21 22 23 24 25 26 27 28 29 30 31 32 33 34 35 36 37 38 39 40 41 42 43 44 45 46 47 48 49 50
000
ASUS43 KLSX 200307
RWRMO

WEATHER SUMMARY FOR MISSOURI
NATIONAL WEATHER SERVICE SPRINGFIELD MO
900 PM CST FRI DEC 19 2014

NOTE: "FAIR" INDICATES FEW OR NO CLOUDS BELOW 12,000 FEET WITH NO
       SIGNIFICANT WEATHER AND/OR OBSTRUCTIONS TO VISIBILITY.
       CURRENT SKY AND/OR WEATHER CONDITIONS ARE NOT AVAILABLE FOR
       CHILLICOTHE AND FARMINGTON.

MOZ001>031-035>038-043-044-053-054-200400-
...NORTHERN AND WESTERN MISSOURI...

CITY           SKY/WX    TMP DP  RH WIND       PRES   REMARKS
KANSAS CTY INT DRIZZLE   32  31  96 SW3       30.20S FOG
KANSAS C DTWN  CLOUDY    35  32  88 CALM      30.22R FOG
LEE`S SUMMIT   CLOUDY    34  33  96 CALM      30.21S FOG
ST JOSEPH      CLOUDY    32  29  88 SW5       30.22S WCI  27
CHILLICOTHE      N/A     34  32  92 CALM      30.24R
KIRKSVILLE     CLOUDY    32  31  96 SE8       30.23S FOG     WCI  25

$$
MOZ066>068-077>081-088>096-101>105-200400-
...SOUTHWEST MISSOURI...

CITY           SKY/WX    TMP DP  RH WIND       PRES   REMARKS
SPRINGFIELD    CLOUDY    38  36  92 SE8       30.18S FOG
JOPLIN         FOG       39  39 100 CALM      30.20S VSB 1/4

$$
MOZ032>034-039>042-045>050-055>058-069>072-200400-
...CENTRAL MISSOURI...

CITY           SKY/WX    TMP DP  RH WIND       PRES   REMARKS
COLUMBIA       CLOUDY    35  32  88 SE7       30.22S WCI  29
JEFFERSON CITY CLOUDY    36  32  85 E7        30.24S
ROLLA          CLOUDY    34  32  92 SE5       30.20S WCI  30
SEDALIA        CLOUDY    36  35  96 SE5       30.21F FOG
WHITEMAN AFB   CLOUDY    36  35  96 SE3       30.21S FOG
WARRENSBURG    CLOUDY    34  34 100 CALM      30.22R FOG
OSAGE BEACH    CLOUDY    37  34  87 CALM      30.21S

$$
MOZ051-052-059>065-200400-
...EAST CENTRAL MISSOURI...

CITY           SKY/WX    TMP DP  RH WIND       PRES   REMARKS
ST LOUIS INTL  CLOUDY    36  28  73 E8        30.26S WCI  30
SPIRIT OF STL  CLOUDY    36  29  75 CALM      30.25S
ST CHARLES     CLOUDY    35  30  82 E5        30.26S

$$
MOZ072>076-082>087-097>100-106>115-200400-
...SOUTH CENTRAL AND SOUTHEAST MISSOURI...

CITY           SKY/WX    TMP DP  RH WIND       PRES   REMARKS
CAPE GIRARDEAU CLOUDY    35  31  85 N6        30.27R
FARMINGTON     CLOUDY    34  30  86 CALM      30.25R
POPLAR BLUFF   CLOUDY    37  31  78 NE3       30.26R
WEST PLAINS    CLOUDY    35  32  88 CALM      30.22S

$$



USA.gov is the U.S. government's official web portal to all federal, state and local government web resources and services.